RH
85 89 96 96 97 99 96 98 96 90 90 90 91 93 92 88 82 78 76 77 78 76 75 75 80 85 84 78 76 75 68 66 66 69 67 67 70 69 68 70 73 69 65 61 57 57 60 64 55 44 42 42 39 36 33 30 28 28 30 33 40 43 42 42 40 41 41 39 40 46 49 51 54 56 57 56 55 54 49 49 52 52 52 56 55 56 57 58 58 59 65 48 24 35 59 66 64
86 89 95 96 97 96 93 95 95 92 89 86 89 93 92 83 78 86 81 76 78 75 77 80 84 84 83 82 84 84 70 65 70 68 65 68 69 67 67 69 73 69 63 60 59 62 65 62 50 43 43 41 38 34 32 30 28 28 32 37 42 43 41 39 38 38 36 34 37 46 50 52 58 57 55 56 53 52 50 52 54 52 53 56 55 56 58 59 59 62 66 49 26 34 53 65 66
90 90 93 94 95 93 93 94 94 95 90 84 87 92 91 82 79 89 85 79 80 78 82 84 85 83 82 85 87 86 69 62 71 71 65 67 68 66 68 68 72 72 65 59 61 66 63 55 46 44 43 40 37 33 31 30 30 31 35 41 43 41 39 37 36 35 33 33 36 45 50 50 56 54 52 55 51 51 52 53 53 52 54 56 56 57 59 59 60 63 68 53 30 31 47 61 66
92 92 93 93 94 91 88 88 88 88 86 84 88 93 94 90 85 85 83 82 84 82 82 83 87 87 86 83 82 82 68 60 70 72 63 66 69 66 69 66 67 71 68 62 60 63 58 51 47 45 43 39 36 32 32 31 32 35 39 42 41 39 37 35 34 34 34 36 37 43 49 50 53 52 52 54 51 53 52 49 50 52 55 57 57 56 57 58 59 62 66 61 39 30 41 53 62
88 89 91 90 91 87 82 83 84 81 81 84 89 94 96 95 88 81 80 84 88 86 83 82 86 88 90 85 80 79 68 60 67 72 64 65 70 67 72 71 66 66 70 69 64 64 59 54 49 45 42 38 35 33 32 32 35 38 41 40 38 36 35 34 34 35 38 40 42 43 48 50 51 53 55 57 54 54 51 48 50 50 53 55 55 53 54 55 59 59 60 65 51 32 35 46 55
85 86 86 84 86 85 82 86 83 73 74 81 87 92 96 96 89 84 85 89 89 86 86 84 81 80 83 82 80 78 74 63 60 70 66 61 66 66 70 73 67 64 67 70 67 64 59 57 50 45 41 36 35 33 33 33 36 40 40 38 36 35 34 35 37 40 43 45 48 48 49 50 50 52 52 55 52 50 52 50 50 50 50 51 52 52 52 55 58 59 58 63 60 43 33 40 49
81 84 81 80 81 82 83 85 80 67 67 77 82 85 92 96 92 89 88 89 90 88 88 87 81 77 80 81 81 83 80 67 57 66 66 57 62 62 63 67 66 63 61 62 62 58 56 56 48 43 39 36 35 33 33 34 37 39 37 36 35 35 36 40 44 47 50 51 52 52 52 51 51 51 50 51 50 50 52 50 50 51 51 51 51 50 50 54 56 59 60 61 63 56 40 34 44
78 81 77 78 79 81 83 81 76 66 67 76 79 80 85 93 95 92 87 87 90 90 89 87 81 73 75 79 78 79 73 65 60 64 64 58 60 60 59 63 62 60 58 59 59 54 53 52 46 42 39 36 35 33 32 34 37 37 36 37 36 38 44 47 51 52 53 54 53 53 54 54 53 53 53 53 53 53 53 52 52 52 51 51 49 46 47 51 56 58 59 62 64 62 52 35 34
75 77 76 78 78 79 80 77 74 66 69 76 79 79 82 88 89 91 92 91 90 88 87 83 79 69 66 72 68 66 65 65 65 65 63 58 59 58 60 64 62 60 59 61 59 53 51 49 45 41 38 37 35 31 32 36 38 38 39 40 42 47 51 52 53 51 51 50 50 52 53 54 54 53 53 52 52 51 50 49 48 47 46 44 42 41 43 45 52 57 56 61 63 61 59 47 32
71 73 75 77 75 77 76 73 71 66 70 75 80 80 83 83 78 84 88 91 90 86 86 80 77 68 61 65 62 64 68 70 68 65 62 58 59 59 61 66 65 61 59 60 56 52 51 47 44 40 38 36 31 30 35 39 40 41 43 44 49 53 54 52 50 48 46 46 47 48 49 51 51 49 47 46 46 44 43 43 43 43 41 41 41 42 45 45 48 54 58 61 61 58 59 59 45
68 66 70 72 69 73 76 71 67 66 70 73 81 82 84 82 77 81 78 83 90 84 82 78 77 72 64 65 65 71 73 71 67 62 62 59 58 59 61 64 64 61 57 56 54 52 51 46 43 40 38 33 27 31 39 42 43 45 47 49 54 54 52 49 45 41 40 41 41 41 42 44 44 42 42 41 41 40 40 42 43 45 45 45 45 45 46 48 48 50 56 62 61 57 56 63 59
68 62 65 68 65 71 77 73 66 67 69 71 79 83 85 82 79 79 69 74 85 82 79 77 79 72 63 64 68 75 75 72 68 62 63 62 60 60 60 62 64 62 57 54 53 52 50 46 42 39 36 29 26 36 43 44 46 49 51 53 54 53 49 45 40 36 36 36 35 37 39 40 41 41 40 38 36 35 34 35 37 40 41 41 41 42 44 49 53 53 54 57 58 54 54 60 64
65 61 61 65 65 68 74 73 69 67 69 72 75 82 85 80 77 74 69 74 81 81 76 74 76 70 61 62 67 72 74 74 70 64 64 64 62 62 63 63 64 62 58 54 53 52 50 46 41 39 34 25 29 41 46 47 50 53 54 54 54 51 48 44 38 34 33 33 34 38 41 42 42 39 35 34 32 29 28 28 29 30 33 34 36 36 36 39 46 55 57 56 56 53 54 56 60
64 62 60 64 65 65 71 73 70 66 68 76 80 86 87 80 75 75 77 80 83 80 72 73 72 64 60 57 62 68 69 73 72 66 65 66 65 64 66 67 65 61 59 55 54 53 49 45 41 39 31 23 32 43 46 48 53 56 55 54 53 51 49 45 38 34 31 31 36 41 43 41 37 33 34 37 35 30 27 26 27 29 30 31 32 29 26 27 32 41 48 54 57 54 53 54 58
59 62 64 64 63 65 73 74 69 67 68 77 84 84 82 79 76 80 87 80 80 81 71 73 71 61 57 47 47 57 65 70 70 66 65 68 67 67 69 68 65 62 59 56 54 52 48 44 41 38 27 23 35 43 46 49 55 57 54 54 53 52 50 45 37 32 29 30 37 42 41 37 31 33 40 44 41 35 29 27 27 29 31 32 36 38 39 41 42 38 34 38 47 55 56 54 58
56 64 67 63 61 66 75 74 67 66 69 75 78 72 71 80 79 82 94 81 71 79 73 71 73 67 60 45 40 50 62 67 68 65 65 66 67 68 69 67 65 63 59 55 54 51 47 43 40 36 25 25 38 44 45 49 55 56 54 54 53 53 50 43 35 28 25 30 36 39 38 33 31 37 44 47 47 41 34 33 34 35 37 42 47 52 56 56 54 46 34 24 24 36 49 56 61
54 64 66 63 60 62 69 70 67 68 71 72 71 70 74 84 85 85 94 85 69 76 81 78 80 77 67 53 44 52 62 65 66 65 64 65 67 68 67 67 67 64 58 55 55 50 47 43 39 33 23 26 39 44 45 48 52 55 55 53 53 53 48 39 31 25 25 31 35 35 32 30 33 40 45 48 49 46 43 44 45 47 49 53 57 60 62 60 56 52 46 35 25 23 29 44 54
50 61 62 60 57 57 63 65 67 69 71 69 66 72 80 85 89 89 90 89 79 78 84 85 84 80 73 59 47 54 61 62 65 65 63 62 62 64 64 65 65 61 56 55 54 49 46 42 39 32 22 27 39 43 45 47 50 53 55 55 54 51 43 35 28 25 26 30 31 29 27 30 36 40 44 46 47 48 48 49 50 53 54 57 61 63 65 64 61 57 52 46 41 35 31 35 43
48 60 58 57 55 54 59 62 65 68 68 67 63 65 75 82 86 87 83 84 81 73 75 78 74 73 73 62 49 51 56 59 62 61 62 59 56 56 58 60 58 54 50 50 50 48 45 40 39 32 22 28 39 43 45 47 49 51 54 54 53 47 38 32 29 28 28 28 26 24 26 32 37 39 41 42 43 47 49 50 53 56 58 59 61 63 64 64 64 61 56 50 45 43 42 39 40
52 59 55 54 52 52 55 58 62 65 66 63 61 63 66 73 78 78 74 75 76 64 60 63 58 59 66 61 50 47 50 55 58 61 62 59 56 55 54 53 48 46 44 44 45 45 44 39 39 32 22 28 38 42 45 48 49 49 51 51 49 42 35 33 34 33 31 31 26 23 27 32 36 37 38 39 42 47 52 55 58 61 62 62 63 64 64 63 63 63 60 54 49 45 45 44 39
56 55 51 54 52 52 53 55 59 61 67 63 60 62 61 67 72 72 67 66 70 60 52 55 51 49 58 60 51 45 45 47 53 60 59 57 59 57 54 52 47 46 43 43 43 42 42 39 39 32 21 28 37 41 45 48 49 49 50 49 45 38 35 37 39 37 36 35 27 25 31 35 36 35 37 40 45 49 53 57 60 63 64 64 64 64 65 65 65 66 65 58 52 47 44 43 38
57 50 49 57 56 54 52 54 57 55 61 62 58 58 57 62 66 67 63 59 60 55 52 56 53 47 51 57 53 46 43 41 44 49 50 51 54 53 51 51 50 48 45 43 42 41 41 39 39 32 21 26 36 40 44 47 48 49 49 46 39 35 37 42 43 41 39 34 25 27 34 36 36 38 43 47 51 54 56 58 61 64 64 64 64 64 64 66 66 67 68 63 59 54 45 40 39
53 49 50 55 55 53 52 55 56 53 56 59 58 56 54 57 59 62 62 62 62 58 55 56 59 55 50 54 55 49 44 42 41 41 45 48 48 47 45 44 45 45 44 43 41 41 40 38 39 33 22 24 35 40 43 46 47 47 47 44 38 37 39 43 46 45 41 34 28 30 33 36 42 47 50 54 58 59 59 61 64 66 64 61 61 63 63 63 66 66 66 66 65 63 56 49 48
52 49 51 52 55 52 51 57 57 54 56 58 58 55 54 55 58 61 63 67 67 63 60 60 66 64 53 52 55 52 46 43 43 42 45 49 49 47 43 41 42 42 43 43 40 40 40 38 38 34 23 23 33 38 40 44 45 45 45 42 39 39 40 43 46 45 42 38 37 39 41 42 48 53 54 58 61 60 62 65 69 71 68 63 60 61 63 64 67 67 66 67 67 67 63 58 56
59 49 51 53 57 55 52 57 58 57 56 57 58 55 55 57 57 57 60 66 68 63 61 64 67 59 48 49 54 54 49 45 45 45 47 52 54 51 46 42 41 39 40 41 38 39 41 39 37 35 25 22 30 36 38 42 43 43 44 42 39 38 41 44 47 47 44 43 43 43 46 46 50 58 60 60 61 61 64 67 71 74 69 64 61 57 60 64 68 68 66 67 68 69 68 64 60
53 46 50 53 54 54 52 53 54 57 58 58 59 59 57 59 59 59 62 66 67 64 62 64 61 49 43 46 50 52 51 47 46 46 47 53 57 54 48 43 40 38 39 40 38 39 41 39 37 34 27 22 27 34 37 39 41 42 42 42 41 39 40 44 49 51 48 48 48 46 44 44 49 58 60 59 60 59 60 63 67 70 64 61 60 57 56 59 64 66 65 68 70 70 71 70 65
46 48 51 52 51 51 49 49 50 53 57 58 60 64 61 60 59 60 65 67 65 64 63 65 56 45 43 44 47 50 51 49 46 46 48 52 57 55 49 45 43 40 40 41 38 40 41 38 36 33 29 24 24 32 36 37 40 42 41 42 42 41 40 43 48 52 51 49 50 51 51 49 50 54 53 54 56 56 58 59 61 62 57 56 59 60 58 56 59 61 61 66 69 67 68 70 67
52 54 53 53 50 51 49 47 48 48 51 55 59 64 63 61 59 57 59 63 63 60 61 64 55 45 43 43 46 48 51 53 49 47 47 48 51 51 50 49 47 44 43 41 39 42 42 38 36 32 29 26 26 30 33 36 39 41 41 40 41 42 43 43 43 47 49 48 50 53 57 55 51 51 50 51 55 55 56 57 58 57 53 56 60 60 59 57 59 60 59 63 67 63 60 64 65
54 53 54 52 48 49 49 47 46 44 46 52 60 66 65 59 57 55 56 60 62 59 58 57 50 44 44 44 46 47 49 54 52 49 47 46 47 48 50 51 51 49 47 45 42 42 43 40 36 33 30 27 29 31 32 34 37 40 41 40 42 42 45 47 40 41 44 45 50 54 56 55 49 50 52 53 56 57 58 57 57 56 55 57 58 58 60 58 58 60 59 62 65 59 56 66 70
51 52 54 48 45 44 44 46 45 44 45 51 60 64 63 58 55 56 57 58 60 61 55 49 45 44 44 45 46 46 47 49 50 49 48 47 47 47 50 52 52 51 51 50 46 43 44 42 37 35 32 28 30 33 35 36 35 39 42 42 42 41 46 48 40 38 39 39 46 50 52 52 48 50 55 54 53 55 59 61 58 56 56 55 54 59 61 56 54 55 55 58 57 56 65 75 73
51 52 49 46 43 38 38 42 44 45 45 50 55 55 56 56 55 57 56 55 57 58 50 41 43 45 44 45 46 47 46 45 46 47 49 49 47 47 50 52 50 51 53 51 48 47 46 43 39 36 35 30 30 34 38 39 37 38 42 42 41 42 44 46 40 35 35 36 41 46 48 48 46 46 51 51 51 52 55 60 59 56 58 56 53 60 63 59 55 51 50 52 52 59 67 68 68
49 47 44 42 40 35 35 40 42 42 43 49 51 50 52 54 54 55 54 54 55 56 47 37 38 41 42 44 45 47 47 46 45 44 48 50 48 47 50 51 48 49 51 51 50 50 48 45 41 38 37 34 30 33 38 42 41 39 41 42 41 42 41 41 42 36 34 35 38 43 44 44 42 42 45 47 50 54 54 58 58 54 56 57 54 60 64 60 56 53 51 47 51 64 62 55 62
46 45 42 38 36 34 34 38 41 40 41 46 47 48 51 52 52 52 53 55 54 55 50 37 33 35 38 41 43 46 48 48 46 43 44 47 47 46 48 49 47 47 50 51 50 49 47 44 42 41 40 37 32 32 37 41 44 40 41 44 42 40 38 39 42 39 36 36 38 41 42 41 39 39 42 42 45 54 58 59 55 49 52 55 53 60 63 56 53 52 49 44 46 58 55 50 55
45 45 43 37 34 33 33 36 38 39 42 44 45 46 46 48 49 51 54 55 52 54 52 41 36 34 34 38 42 45 46 45 42 41 41 43 44 44 45 47 46 46 49 49 49 49 47 43 41 42 41 40 36 32 34 39 43 43 42 45 44 38 36 37 40 41 39 38 38 40 40 39 37 37 40 40 41 49 56 56 52 49 51 52 53 60 59 51 48 45 44 44 43 47 47 49 53
45 45 43 38 34 34 33 32 33 38 42 44 45 44 44 46 48 50 52 53 51 53 52 47 45 38 33 36 39 42 43 42 39 39 39 40 40 40 42 46 44 45 48 48 47 48 50 46 42 42 42 41 39 35 34 37 43 45 42 44 43 37 34 35 36 40 41 39 39 39 39 38 35 36 37 37 38 43 52 54 53 54 54 52 53 60 62 55 50 45 44 46 45 47 51 55 55
43 43 42 36 33 34 35 34 33 35 39 43 44 43 44 46 48 49 49 50 50 52 53 53 51 42 34 35 36 38 38 37 39 38 38 39 40 39 40 43 43 43 45 45 45 45 47 46 42 42 42 40 40 37 35 36 41 44 41 40 40 35 32 33 34 39 41 39 39 39 38 37 34 35 36 34 34 40 49 53 56 56 55 55 50 53 62 60 53 44 40 43 46 52 57 63 59
40 39 39 35 32 33 34 35 35 35 37 40 40 41 44 45 46 47 47 51 52 53 55 53 51 46 41 38 34 34 33 33 37 38 37 38 40 41 41 42 42 42 43 42 42 40 39 40 40 40 42 40 39 36 33 33 38 40 37 36 37 35 31 31 33 38 42 41 39 39 38 37 35 36 35 33 32 37 46 51 55 52 52 57 51 51 58 53 43 36 38 45 47 52 59 66 63
37 37 36 34 33 33 32 33 34 35 35 37 38 39 43 44 44 44 45 50 51 53 54 51 49 48 47 45 37 33 34 36 39 38 37 37 39 41 42 42 40 40 41 39 39 37 35 35 36 39 41 38 36 36 33 31 34 36 34 34 36 35 32 31 32 37 42 42 40 39 38 37 37 37 35 32 31 36 43 48 53 51 50 53 50 50 53 45 36 32 40 48 47 54 63 64 64
34 35 35 33 34 34 32 32 32 33 33 34 36 37 41 42 42 42 43 44 45 48 51 48 46 46 47 49 44 38 37 38 39 37 36 36 37 39 40 40 38 37 39 40 40 40 38 35 34 38 39 37 35 36 35 30 31 34 35 36 37 36 34 34 34 36 40 41 40 40 39 38 38 37 35 32 32 35 40 45 51 52 49 49 48 45 43 41 41 37 38 45 47 55 60 57 57
32 33 33 32 33 33 32 33 31 29 30 32 32 34 39 42 42 43 42 40 41 45 48 47 44 42 42 45 47 46 42 38 36 35 36 35 35 37 37 37 36 36 37 40 42 40 38 35 32 33 34 35 35 36 36 33 32 34 37 39 39 38 38 38 36 35 37 38 37 37 39 40 38 37 36 33 32 34 38 42 48 52 49 48 50 48 44 41 44 42 37 41 48 51 52 51 50
30 31 31 31 32 33 32 32 31 27 26 27 30 36 41 44 45 45 44 42 42 45 49 48 44 42 41 42 46 48 45 39 34 33 34 32 31 32 34 35 36 34 33 35 38 36 33 31 29 30 30 31 31 34 37 35 32 33 37 40 40 39 39 38 35 33 33 32 33 34 37 39 38 36 35 32 31 33 37 41 44 49 50 49 50 49 47 43 45 47 40 41 48 47 44 46 46
29 30 30 31 32 32 31 31 31 28 26 25 31 41 43 42 44 44 44 46 47 48 49 47 44 43 42 42 44 46 46 44 40 34 31 30 28 28 31 34 35 32 29 30 33 33 31 28 27 28 29 27 27 29 33 33 29 28 30 33 33 33 31 30 30 30 30 28 30 33 34 36 36 35 33 30 30 31 35 40 42 47 50 50 49 49 48 43 46 49 42 43 47 44 41 43 44
27 24 26 30 31 30 30 31 32 28 25 25 31 39 40 39 42 42 43 49 50 48 47 43 40 40 41 41 42 42 43 46 47 41 35 33 31 29 29 31 31 29 28 29 32 33 32 29 28 27 28 28 26 26 29 30 28 24 23 23 25 26 25 23 25 26 26 25 26 30 31 33 33 33 32 29 28 29 32 36 39 44 48 50 50 52 50 43 45 46 40 43 47 42 40 42 42
28 22 22 27 30 29 30 31 32 29 24 24 30 33 34 36 39 40 43 49 51 46 44 41 37 36 36 38 40 39 40 42 45 45 40 37 35 33 30 28 28 29 29 30 31 30 29 28 28 26 27 28 27 26 26 27 26 22 19 18 19 21 22 22 23 22 22 22 23 27 28 30 32 34 32 29 26 26 28 31 35 39 44 48 49 51 49 41 40 44 41 41 44 41 40 41 41
30 27 24 24 25 27 30 31 32 32 26 24 28 30 33 35 34 36 40 45 48 44 40 38 35 33 34 36 38 37 38 39 40 42 40 38 36 35 33 30 28 29 30 29 28 28 26 25 26 26 25 28 28 26 24 24 24 23 20 17 17 18 20 22 23 22 21 20 21 24 26 27 30 33 33 31 27 24 24 27 30 34 39 46 47 47 49 42 37 42 43 41 42 41 40 40 42
31 30 28 26 23 22 24 27 28 28 28 26 25 27 32 34 31 34 38 39 40 40 36 35 34 33 33 35 36 36 36 38 38 40 40 39 37 33 33 33 30 29 28 27 28 29 28 26 26 26 25 25 27 25 22 21 22 22 20 17 16 17 18 20 21 21 20 21 22 23 24 25 26 29 31 31 29 26 24 24 26 29 34 43 46 44 47 47 42 42 41 40 41 40 39 41 43
33 30 29 28 26 24 23 23 22 25 29 26 24 23 27 32 31 31 35 34 33 33 33 34 33 33 33 33 34 35 35 35 35 37 39 40 39 34 33 35 31 28 27 27 28 29 30 28 26 26 25 24 25 24 21 19 19 20 19 18 17 17 18 19 19 18 18 21 23 23 23 24 23 24 27 28 29 29 26 24 24 26 29 38 45 45 45 47 46 45 42 38 41 41 39 42 44
35 30 28 28 27 25 25 23 23 31 32 24 21 21 23 30 30 27 29 29 28 29 30 32 33 33 33 33 34 34 33 32 31 34 38 41 41 34 32 35 32 27 27 26 26 27 28 28 26 25 26 24 23 23 21 18 17 17 18 19 17 17 17 17 17 16 15 16 19 20 22 23 23 22 24 25 27 29 29 27 24 23 24 31 41 46 45 44 42 44 44 38 40 41 39 42 44
34 32 28 29 29 27 28 28 26 31 30 22 19 18 20 26 27 25 26 25 26 28 28 29 30 31 33 35 35 34 33 31 29 31 35 39 38 31 28 33 33 28 26 25 24 25 26 26 26 25 25 23 21 21 20 18 16 16 17 18 18 18 17 16 16 15 14 13 14 15 16 21 24 22 20 21 24 26 29 30 28 24 22 25 35 42 43 42 39 39 41 37 37 41 40 41 44
31 32 28 28 29 31 34 32 26 24 23 20 18 16 17 19 20 23 25 24 24 27 28 28 29 30 32 34 35 34 33 31 30 30 33 35 34 30 27 30 34 31 27 25 23 22 23 23 23 23 23 23 21 19 19 17 16 15 16 17 18 19 18 16 15 14 14 13 11 12 12 14 19 20 19 20 22 23 26 31 32 30 25 22 29 37 38 38 37 37 39 37 36 40 41 40 43
25 27 27 26 25 28 31 27 24 22 19 17 16 16 17 15 15 18 20 23 24 25 28 29 28 28 29 30 32 33 32 31 30 30 32 31 32 32 28 27 31 32 30 27 23 20 19 20 20 20 20 20 20 18 17 16 15 14 15 16 17 18 18 17 15 14 14 13 11 10 10 10 12 15 18 20 20 20 22 27 30 31 30 25 23 29 33 33 34 35 38 39 38 40 42 40 41
22 22 23 24 22 22 23 18 16 16 15 16 14 14 15 12 14 14 15 20 22 20 22 25 27 27 27 28 30 31 30 29 30 30 30 31 32 32 31 27 28 31 31 31 28 22 18 17 16 17 18 18 17 17 16 14 14 14 14 14 15 16 17 17 16 15 14 13 12 10 10 10 11 12 16 19 17 15 15 19 24 30 35 32 26 23 25 28 31 32 35 40 41 40 42 41 40
21 21 21 21 21 20 20 16 12 12 16 17 13 12 13 11 13 13 13 15 16 15 15 19 24 26 26 27 28 28 28 27 29 30 29 30 31 31 32 29 26 29 30 31 31 28 23 18 15 15 17 17 15 15 15 14 14 14 13 13 14 15 15 16 16 15 14 14 13 11 9 9 10 12 13 15 15 13 12 14 20 27 33 36 34 27 22 21 24 29 33 37 41 41 43 43 40
19 21 20 19 19 20 20 19 17 18 21 20 13 11 12 12 12 12 12 12 12 13 13 15 20 24 26 26 26 27 27 26 28 28 29 30 30 29 31 29 26 27 29 30 32 32 30 25 19 15 15 15 14 13 14 14 13 13 13 13 14 14 15 15 15 15 15 14 13 11 9 8 8 10 11 12 13 11 10 12 15 20 23 28 32 30 24 18 17 24 30 34 37 39 42 43 41
18 19 20 18 19 19 18 19 20 21 24 22 16 13 11 11 11 11 11 11 11 12 12 12 15 20 24 24 24 25 26 26 27 28 30 30 29 29 31 29 26 27 29 31 33 34 34 32 24 18 15 14 14 14 14 14 13 12 12 12 13 13 14 15 14 15 15 14 12 10 9 7 6 8 9 11 12 11 10 11 12 13 15 18 22 25 23 18 14 17 23 29 32 33 38 42 42
17 18 20 17 18 18 17 17 17 20 28 26 19 17 13 10 11 10 9 10 11 11 11 12 12 15 20 22 23 25 26 27 27 28 30 29 27 28 31 31 29 27 28 29 31 32 32 32 28 22 17 16 17 17 16 14 12 11 11 11 12 12 13 14 14 15 15 13 12 10 9 8 7 7 8 9 10 11 12 12 13 12 11 11 14 16 17 16 14 14 17 23 25 26 30 37 41
18 17 18 17 17 17 16 16 13 17 30 31 25 24 16 8 9 9 6 7 9 9 8 10 12 12 15 19 21 24 25 25 26 27 28 28 27 28 31 33 32 30 28 27 29 28 27 29 30 25 20 17 18 18 17 14 12 10 10 10 11 11 12 13 14 14 15 15 13 11 9 8 8 7 8 9 10 11 12 14 15 15 14 12 12 12 12 12 12 12 14 17 19 19 21 26 34
18 17 16 16 17 15 15 19 15 12 20 25 26 27 18 9 10 9 8 9 9 8 7 8 11 11 11 14 17 22 23 23 24 25 26 26 26 28 31 34 35 33 29 28 28 27 26 27 28 28 25 19 17 18 16 14 13 11 9 9 9 10 11 12 13 13 14 15 15 13 11 9 9 8 8 9 10 11 12 13 14 15 15 14 13 12 12 11 10 11 11 12 13 14 14 17 22
Wind_Speed
5 6 7 4 3 3 3 3 2 2 3 5 5 2 2 5 9 13 13 14 16 17 19 20 19 21 21 19 18 17 10 13 20 21 23 28 31 31 31 32 30 28 28 29 30 29 29 27 25 24 22 20 19 17 16 15 14 14 15 15 16 17 16 16 16 16 16 15 15 15 15 14 14 13 13 13 12 11 11 11 11 10 11 11 11 11 11 10 10 10 10 12 13 14 15 15 15
4 6 6 4 3 4 4 4 4 5 6 6 4 1 3 8 12 14 13 14 16 18 19 19 21 22 21 18 16 15 11 15 18 15 22 31 32 32 31 31 29 28 28 30 30 29 28 26 25 23 21 19 18 16 16 15 14 14 15 16 17 17 16 15 15 15 14 14 14 15 15 14 14 13 13 13 12 11 11 11 11 11 11 11 11 12 11 11 10 10 11 12 14 14 15 15 14
5 6 5 4 3 3 4 4 5 7 9 8 4 0 5 9 13 16 14 14 16 18 19 19 21 21 20 18 17 16 14 18 18 14 24 31 31 33 33 31 30 28 29 29 29 28 26 26 25 23 20 19 17 16 15 14 14 15 16 16 17 16 16 15 14 14 13 13 13 14 14 14 14 13 13 13 13 12 12 12 12 12 12 12 12 12 12 11 11 11 12 13 14 14 14 14 14
5 5 4 3 3 3 4 5 6 7 8 7 3 1 6 11 14 17 16 15 17 18 19 20 21 19 17 16 17 17 16 19 18 14 24 30 29 32 33 32 31 29 29 29 29 28 26 24 23 22 20 18 17 16 15 14 14 15 16 16 16 15 15 14 13 13 13 13 14 14 14 14 14 13 14 14 14 14 14 13 13 13 13 13 13 12 12 11 11 12 12 13 14 14 14 14 14
5 5 4 3 4 6 7 7 7 5 6 6 3 1 9 14 16 18 18 18 18 18 18 18 19 19 17 15 16 16 17 17 15 15 23 30 29 30 33 32 31 30 30 29 28 27 26 23 22 21 19 18 16 16 15 14 15 15 16 16 15 15 14 14 13 13 13 14 14 14 14 14 14 14 14 14 15 15 15 15 15 14 14 13 13 13 12 12 12 12 12 13 14 14 14 14 14
4 4 4 4 5 7 9 9 7 4 4 3 1 5 13 17 18 18 19 19 18 16 15 14 15 17 18 17 17 15 15 14 14 20 25 29 31 30 32 32 31 30 30 29 28 26 25 23 22 20 18 17 16 15 15 14 15 15 15 15 15 14 14 14 14 14 14 15 15 14 15 15 15 15 15 14 15 15 15 15 15 14 14 13 13 13 13 13 12 12 12 12 13 14 14 14 14
3 4 4 5 7 9 11 11 6 2 2 3 7 10 16 19 19 18 18 18 16 14 13 11 12 14 17 19 20 16 14 14 15 23 26 27 30 31 32 32 31 29 29 28 27 25 23 23 22 20 18 17 15 15 14 14 15 15 15 15 14 14 14 15 15 15 15 15 15 15 15 15 15 15 15 15 14 14 15 14 14 14 13 13 13 13 13 13 12 11 12 12 12 13 14 14 14
3 4 5 6 8 10 12 12 5 3 5 6 10 11 17 21 21 17 15 16 14 14 12 12 12 14 17 18 21 18 17 16 17 23 26 27 30 30 31 31 30 29 29 28 27 24 23 22 21 19 17 16 15 14 14 15 15 15 15 15 15 15 15 16 16 16 16 16 15 15 15 15 15 15 15 15 14 15 14 14 14 13 13 13 13 13 13 13 12 11 12 12 12 12 14 14 14
2 3 5 7 8 11 11 11 6 5 8 8 11 12 16 19 18 16 14 14 14 14 12 13 13 14 18 20 21 23 21 20 20 24 26 27 29 29 30 29 28 28 28 28 26 24 23 22 20 18 17 15 14 14 15 16 15 15 15 16 16 17 17 18 18 17 17 16 15 15 16 16 15 15 15 15 14 14 14 14 13 13 12 12 12 12 12 12 12 11 12 12 11 11 13 14 14
2 3 5 6 8 10 10 8 4 6 10 9 12 13 15 16 14 15 15 14 14 15 14 15 14 13 18 23 23 24 22 22 22 25 27 27 28 28 29 28 27 26 27 27 25 24 22 21 20 18 16 15 14 16 17 16 16 16 16 17 17 18 19 19 18 16 15 15 15 15 15 15 15 15 15 14 14 14 14 14 13 13 13 12 12 13 12 12 12 12 12 11 11 11 12 13 14
0 1 4 6 8 9 11 7 6 8 10 11 14 15 15 17 15 15 15 14 14 14 15 16 14 13 20 24 23 23 21 22 22 25 27 27 27 28 28 28 26 25 25 25 24 23 22 21 20 18 16 14 16 17 18 17 16 17 17 18 18 19 19 18 16 15 14 14 14 15 15 15 15 15 16 16 15 15 15 15 14 14 14 13 13 13 12 12 12 12 12 11 10 11 11 12 13
2 1 3 5 8 9 9 6 8 8 7 11 15 16 16 17 16 16 15 13 15 14 14 15 13 14 22 24 24 25 22 22 22 23 26 27 27 27 28 28 26 25 24 24 24 23 22 21 20 18 16 15 18 19 18 17 17 17 18 19 19 19 18 16 15 13 14 14 14 15 16 16 17 17 17 17 16 15 15 15 15 14 14 14 13 13 12 12 12 12 11 10 10 11 11 11 13
2 1 3 4 7 8 8 6 4 4 6 10 13 16 17 17 15 14 13 12 13 12 12 12 13 17 22 24 26 27 24 24 23 24 26 27 27 27 27 27 26 26 25 24 23 22 21 20 19 17 16 17 20 20 19 18 17 18 18 19 19 19 17 15 13 13 13 14 15 17 17 18 18 18 17 16 16 16 15 15 15 15 14 14 14 13 13 12 12 12 12 11 10 10 10 11 12
2 1 2 4 5 7 9 8 4 2 6 8 13 18 19 17 15 13 13 13 11 9 9 9 12 19 22 24 27 28 27 26 25 25 26 27 27 27 27 26 26 26 25 24 23 22 21 20 18 16 16 19 21 20 19 19 18 18 19 20 19 17 15 14 13 12 13 15 17 18 18 18 17 17 17 16 17 17 17 18 17 17 16 15 14 14 14 13 13 12 11 11 10 10 10 10 12
2 1 0 3 4 7 10 8 6 4 10 10 14 18 16 15 15 16 16 11 10 9 7 9 14 16 18 20 23 28 29 27 27 26 27 28 27 27 27 27 27 26 25 24 23 22 20 19 18 15 16 19 21 20 20 19 19 19 19 19 18 16 14 13 12 12 14 16 17 18 18 17 17 17 17 17 17 18 18 19 19 18 17 16 16 15 15 15 14 13 12 10 10 10 10 10 11
2 2 1 2 3 7 8 7 7 8 11 9 11 14 12 15 15 16 16 8 10 12 6 8 13 13 13 14 18 26 29 28 28 27 27 28 28 28 28 28 27 26 26 24 23 22 20 19 17 15 16 19 20 20 20 19 19 19 19 19 18 15 13 12 12 13 15 17 18 18 17 17 17 17 17 17 17 17 19 19 19 18 18 17 16 15 15 15 15 15 14 12 11 10 10 9 10
5 4 2 0 3 4 6 6 7 7 9 9 11 12 11 16 16 13 13 6 8 13 9 9 11 10 10 13 18 26 28 29 29 28 28 28 29 30 30 29 28 27 26 25 24 22 21 19 17 15 17 20 20 20 20 19 19 18 19 18 17 15 13 12 12 13 15 17 18 17 17 17 17 18 17 16 16 16 17 17 17 17 17 16 15 14 14 14 14 15 15 15 14 12 11 9 8
8 5 2 2 4 5 8 8 6 6 8 11 10 9 11 15 16 13 11 9 9 12 13 12 12 11 11 15 21 25 27 29 29 29 28 29 30 30 30 29 28 28 27 26 25 23 21 19 17 15 17 20 20 20 20 19 18 18 18 18 16 14 13 12 13 14 15 16 17 17 17 18 18 17 16 15 15 15 15 15 15 15 15 15 14 14 13 13 14 14 14 15 15 14 12 10 8
8 5 3 5 6 7 9 7 5 6 8 7 5 6 10 13 14 13 13 14 12 11 12 13 14 16 16 20 23 25 27 28 28 28 27 28 27 28 29 29 28 28 27 26 25 24 22 20 17 16 18 20 20 20 20 19 18 18 18 17 16 14 13 12 13 15 15 16 16 18 18 18 17 16 15 14 13 13 13 13 13 12 12 13 13 13 13 13 13 13 13 13 14 14 13 12 10
9 6 3 7 9 9 8 6 6 10 9 4 4 10 10 11 14 13 13 14 12 11 9 10 15 18 20 24 25 25 26 27 27 27 26 26 25 25 26 26 27 26 25 25 24 24 23 20 18 16 18 20 20 20 19 19 18 18 18 17 16 14 13 13 13 14 15 15 16 17 19 18 16 15 14 13 12 12 11 12 12 11 11 12 12 13 13 13 13 12 12 12 12 13 13 12 11
10 8 7 10 9 8 6 7 8 11 13 5 5 11 11 12 15 13 11 11 10 10 6 4 9 16 21 24 26 25 25 25 26 26 26 24 23 24 24 24 24 24 24 24 23 23 23 21 19 17 19 20 20 20 19 19 19 18 18 17 16 14 13 12 13 14 15 15 16 17 18 17 15 14 13 12 11 11 11 11 11 12 12 12 12 12 12 12 12 11 11 11 12 12 13 11 10
12 9 10 9 6 7 8 7 3 7 13 6 3 7 9 13 15 12 9 8 6 5 1 2 4 10 16 21 25 25 24 24 25 25 25 23 22 23 23 23 24 24 24 23 22 22 22 21 19 18 19 21 20 19 19 19 19 18 17 16 15 14 13 12 13 14 15 16 16 17 16 15 14 13 12 12 11 11 11 11 11 11 11 11 11 11 11 11 11 11 10 11 11 11 11 11 10
12 10 9 8 5 7 8 4 1 5 10 8 5 6 9 10 10 9 9 10 8 5 2 2 5 5 10 17 23 24 23 23 22 23 23 23 22 22 22 23 23 23 23 22 22 21 22 21 20 18 19 21 21 20 20 19 19 18 17 16 15 14 13 12 13 14 15 16 16 16 15 14 13 11 11 11 10 10 11 11 11 11 11 11 11 11 10 10 11 11 10 10 10 9 9 10 10
12 11 10 6 3 3 4 2 3 5 8 8 6 7 8 7 7 8 9 10 11 8 5 5 7 8 10 16 20 22 22 22 21 21 22 22 22 21 21 22 22 21 22 22 22 21 21 21 20 19 19 21 21 20 20 20 19 18 17 17 16 15 13 13 13 13 15 15 15 15 14 13 12 11 11 11 10 9 11 11 11 11 10 10 10 10 10 10 10 9 10 10 9 8 8 9 10
16 12 9 6 6 7 6 5 8 8 7 7 7 9 8 5 6 8 9 11 13 11 8 8 10 11 13 15 19 23 24 24 22 22 23 23 22 22 22 22 22 21 21 22 21 21 20 20 21 20 19 21 21 20 20 20 19 18 17 17 16 15 14 13 13 14 14 14 14 14 13 12 12 11 10 11 10 9 10 10 10 10 9 9 9 8 9 10 9 8 9 9 9 8 8 8 9
16 10 8 7 8 9 9 9 9 10 11 9 9 10 8 6 7 9 11 13 14 13 10 11 12 13 13 14 18 23 25 26 24 22 23 24 24 23 23 22 22 20 20 21 20 20 20 20 21 20 19 20 21 20 19 19 19 18 17 17 16 15 14 13 13 13 14 14 13 13 13 12 11 10 10 10 10 9 10 9 9 9 9 9 8 8 8 8 8 9 9 9 8 7 7 8 9
14 10 9 11 11 11 11 11 10 9 11 13 12 12 11 10 12 14 15 16 16 14 13 13 13 13 13 15 19 21 24 26 24 23 24 26 26 24 24 23 21 20 21 22 20 20 19 19 20 21 20 20 21 21 20 19 18 18 18 17 16 15 14 13 13 13 14 13 12 11 11 11 10 10 10 10 10 9 10 9 9 9 8 8 7 8 8 8 8 9 9 8 8 8 8 9 10
16 16 15 17 18 18 17 16 14 11 11 13 13 14 15 15 16 17 18 18 17 15 15 15 15 13 14 17 19 21 23 24 25 24 23 24 26 25 24 22 21 21 21 21 20 20 19 19 20 21 21 21 20 21 20 19 19 18 18 17 16 15 14 13 13 14 14 13 12 10 10 10 10 10 9 9 9 8 9 8 8 8 7 7 6 7 7 7 8 9 9 8 7 7 8 9 9
19 19 21 22 22 25 25 21 19 16 14 12 12 15 19 18 16 17 17 17 17 16 15 17 16 15 15 18 20 22 22 23 24 24 22 21 22 24 22 21 21 20 20 21 20 20 19 19 20 21 21 21 21 21 20 19 19 18 18 17 16 15 14 13 13 14 14 13 12 11 10 9 10 10 9 8 9 8 7 7 7 7 7 6 6 7 7 7 7 8 8 8 6 6 8 8 9
20 20 22 22 22 26 27 26 22 18 15 13 15 18 21 19 15 15 16 17 19 18 17 18 18 17 17 19 21 22 23 24 24 23 22 20 21 22 21 21 21 20 20 21 21 21 20 20 21 21 21 22 21 21 21 20 20 19 18 17 16 15 15 14 14 14 14 13 11 10 10 9 9 9 8 7 8 8 7 6 5 6 5 5 6 6 7 7 7 7 8 7 5 6 7 8 8
20 21 22 23 25 26 25 27 25 20 18 17 18 19 20 21 18 17 17 19 21 19 19 19 18 18 19 20 22 22 23 23 23 22 21 21 21 21 21 21 21 21 21 21 21 20 20 20 21 21 21 22 22 21 21 20 20 19 18 17 16 15 15 15 14 14 14 12 11 9 8 8 8 8 7 7 7 7 7 6 5 5 4 4 5 6 7 7 6 7 7 7 6 6 7 7 7
21 21 23 24 26 25 22 26 27 22 21 22 22 19 19 20 20 21 20 22 24 20 20 20 19 19 20 22 23 23 23 23 23 22 21 21 21 21 21 21 21 22 22 21 21 21 21 21 21 21 21 21 22 22 21 20 20 20 19 17 16 16 15 15 14 13 12 11 11 9 8 7 7 6 6 5 6 5 5 5 5 5 5 4 4 4 5 6 5 6 7 6 6 6 6 6 6
26 23 23 22 23 23 20 24 26 22 21 24 26 22 19 19 19 22 23 24 24 22 22 20 19 19 20 22 23 24 25 25 24 23 22 22 21 21 21 21 21 21 21 21 21 21 21 22 22 21 21 21 21 23 22 21 21 20 20 18 17 17 16 15 15 13 12 11 10 10 8 7 6 5 5 4 5 5 4 4 4 4 5 4 3 3 4 4 4 6 7 6 5 5 5 6 6
31 26 25 23 20 21 23 23 23 23 22 25 28 26 22 19 18 22 25 25 25 24 24 21 19 18 19 20 22 25 26 25 24 23 23 22 22 22 21 22 22 21 21 22 21 21 21 21 22 22 21 21 21 22 23 21 21 21 20 19 18 17 17 16 16 15 14 13 11 10 9 7 6 5 5 4 4 4 4 4 4 3 4 3 3 3 3 3 4 5 6 5 4 5 5 6 6
32 28 26 25 21 21 26 27 25 25 26 26 27 28 26 20 17 21 24 24 26 27 26 22 20 19 18 20 22 24 25 25 23 22 22 22 22 22 22 23 23 22 22 22 22 21 21 21 21 22 22 22 21 22 24 23 22 22 22 21 20 19 18 17 17 16 15 14 12 11 9 8 7 6 5 5 5 5 4 4 4 3 3 2 2 2 1 3 4 5 5 5 4 4 5 6 6
29 28 25 25 22 22 25 26 25 25 28 30 29 29 28 24 21 23 25 25 26 28 28 24 20 20 20 19 20 22 23 22 21 21 20 21 23 22 22 24 23 22 22 22 23 22 22 22 22 23 23 22 22 22 25 25 24 24 23 22 21 20 19 18 17 17 16 15 13 12 10 10 9 8 6 6 6 6 5 4 3 3 2 2 1 2 1 2 3 4 4 4 4 4 5 6 6
25 25 25 24 22 24 27 27 25 24 28 32 31 29 30 29 25 24 26 29 29 30 31 26 21 22 22 19 19 20 19 18 19 20 21 22 23 23 23 24 24 23 24 23 23 23 22 22 22 23 23 23 22 22 24 25 25 24 23 22 21 19 19 18 18 18 17 15 13 12 11 10 10 9 8 7 7 7 6 5 4 3 3 2 1 1 2 2 2 3 4 4 4 5 6 6 6
27 23 25 26 25 28 29 27 26 24 28 33 34 32 32 32 28 23 26 32 33 34 34 28 24 23 22 21 20 19 16 16 19 22 23 23 24 25 25 25 25 25 25 24 23 22 22 22 23 23 24 23 21 21 22 22 22 22 21 20 19 19 19 18 18 17 17 15 13 12 12 11 10 9 8 8 7 7 7 6 5 5 4 2 1 1 1 1 1 3 4 4 4 6 7 7 5
30 27 27 29 30 30 30 29 27 25 28 32 34 35 35 34 30 26 28 32 32 34 35 30 25 23 23 23 21 20 19 19 22 23 24 25 25 26 26 25 25 24 24 24 23 23 22 23 23 24 24 23 21 20 21 21 20 20 19 18 18 18 18 18 18 18 18 16 14 13 12 11 11 10 9 8 8 7 7 7 6 5 4 3 2 1 2 2 2 3 3 3 5 7 7 6 5
32 32 31 32 33 30 30 32 28 23 27 31 34 38 38 33 31 31 28 27 29 32 35 31 26 22 20 21 22 21 22 23 24 24 24 26 26 27 27 26 24 24 25 25 25 24 23 23 23 24 25 23 21 20 20 20 20 20 20 19 19 19 19 20 20 20 19 18 16 14 13 12 11 11 10 9 8 8 8 8 7 6 5 4 2 1 2 2 2 3 3 3 5 6 6 6 6
36 36 36 36 35 33 34 33 26 21 21 27 33 34 35 34 33 36 32 26 30 34 36 33 28 24 18 18 22 22 22 24 24 24 24 24 26 27 27 27 25 25 25 25 25 23 22 22 22 24 25 24 21 20 21 21 21 22 23 23 24 24 23 23 23 22 20 18 16 14 13 13 12 11 10 10 9 9 9 9 8 7 7 5 3 2 2 2 2 3 4 4 4 6 6 6 6
38 40 41 38 37 36 35 30 24 21 20 25 34 27 23 38 39 36 36 34 37 39 38 37 31 27 23 21 23 22 22 24 23 22 21 21 23 24 26 27 27 26 25 24 23 22 21 21 21 23 25 24 21 20 21 21 21 23 24 25 26 26 25 24 23 20 18 16 15 14 14 14 14 13 12 11 10 10 10 10 9 8 8 6 5 3 3 3 3 3 4 4 4 5 5 6 6
39 43 44 40 39 38 36 28 21 20 19 20 38 30 18 36 44 39 40 42 44 42 39 38 33 29 29 27 25 23 22 24 24 23 22 22 22 23 24 25 26 26 24 23 23 22 22 21 21 23 24 24 22 20 21 21 21 22 23 24 24 23 22 20 19 18 17 16 15 15 15 14 14 13 13 12 12 11 11 11 10 9 9 8 6 5 4 4 4 4 4 4 4 4 4 6 6
40 42 42 40 41 38 36 32 23 22 21 17 32 41 24 30 44 44 44 48 48 45 42 40 37 33 31 31 29 25 23 23 24 24 24 23 23 22 21 22 23 24 24 24 24 24 23 21 21 22 23 24 23 21 21 21 21 21 22 22 23 22 20 18 18 18 18 17 16 17 17 16 14 14 13 13 13 13 13 12 11 11 10 9 8 6 5 4 5 4 4 5 4 4 4 5 6
41 35 34 37 42 41 37 34 30 28 25 21 25 36 21 21 42 47 46 52 51 48 46 42 40 38 33 33 32 28 25 23 22 24 23 21 20 20 19 19 20 22 24 25 25 24 23 21 21 22 23 24 25 22 21 21 20 20 21 22 22 22 21 20 20 20 19 18 18 18 18 17 16 15 15 14 14 14 14 13 13 12 11 10 9 8 6 5 5 6 5 5 5 5 4 5 6
39 31 27 29 33 37 35 30 34 31 22 22 27 27 15 12 36 49 47 51 51 48 46 42 42 41 36 34 33 30 27 25 22 23 22 19 15 15 17 18 19 22 25 25 26 26 24 23 23 23 23 24 25 24 22 21 21 21 21 21 22 22 21 22 22 21 20 19 19 19 19 19 18 17 16 16 16 15 15 15 14 14 13 12 11 9 8 7 6 6 6 6 6 7 6 5 6
35 31 28 28 28 32 31 29 34 25 13 24 33 28 20 11 26 48 49 46 47 47 46 44 44 42 37 36 35 33 30 26 23 23 23 20 16 14 17 20 21 22 25 25 27 28 28 26 25 23 23 23 24 25 24 23 23 22 22 21 21 21 21 22 22 21 20 19 18 18 18 19 19 18 18 18 17 16 16 16 15 15 15 14 12 11 9 9 8 7 7 7 7 7 8 7 7
32 30 30 30 28 29 28 28 31 15 6 23 32 29 26 16 21 39 45 44 44 45 45 44 45 44 42 40 37 35 32 27 25 24 24 23 20 18 20 23 23 24 26 27 29 30 30 29 27 25 25 24 25 26 25 25 24 24 23 22 21 21 21 22 21 19 19 17 16 16 17 18 19 19 19 19 18 17 17 17 16 16 16 15 14 12 11 11 9 8 7 8 8 8 9 9 8
35 33 33 25 17 16 14 13 15 7 7 22 27 24 25 25 29 35 37 40 42 44 44 41 41 44 44 44 41 38 35 30 28 27 26 26 24 21 21 24 26 27 27 28 30 31 32 31 29 28 27 26 25 26 26 26 26 25 24 24 22 22 22 21 20 19 18 17 16 16 16 17 18 18 18 17 17 17 16 16 16 15 15 15 15 14 13 12 11 9 9 9 10 9 9 10 9
40 38 37 24 9 6 6 5 4 4 11 24 27 22 18 22 32 35 35 37 38 41 43 40 39 41 41 43 42 40 37 34 32 30 28 27 26 23 21 24 27 29 28 28 30 31 32 31 31 29 28 27 26 26 26 27 26 25 25 25 24 23 22 21 20 19 19 18 17 17 17 16 17 16 15 14 14 16 16 16 16 16 16 17 17 17 15 14 13 11 11 11 11 11 10 10 10
41 39 38 32 22 14 6 3 4 4 9 21 25 17 13 18 25 30 33 33 33 38 42 42 39 39 40 39 39 40 39 37 36 34 30 27 26 24 22 22 26 29 30 29 29 30 31 31 30 30 29 28 27 26 26 26 26 26 25 25 25 24 24 22 20 19 19 19 18 17 17 17 16 15 15 15 15 16 17 17 17 17 17 18 19 18 17 16 14 13 12 12 12 12 11 11 11
39 39 37 39 39 28 10 3 6 8 5 13 21 12 9 16 21 24 28 30 32 32 36 41 41 40 41 40 39 40 39 38 38 36 33 29 27 25 22 22 24 28 31 31 30 29 30 30 29 29 29 29 28 27 26 26 25 26 26 25 25 25 25 24 22 21 20 20 19 18 17 16 16 16 16 17 17 16 17 18 19 17 17 18 18 18 18 17 15 14 14 14 14 13 12 12 12
36 41 43 43 42 32 17 7 8 10 5 9 20 13 8 13 16 20 25 28 32 30 28 35 39 41 43 43 42 42 40 40 39 39 35 31 29 25 23 23 23 26 31 32 32 30 28 28 28 29 30 29 29 28 27 25 25 26 26 26 26 25 25 25 23 22 20 20 20 19 17 17 17 17 18 19 19 18 17 18 19 18 17 17 16 16 17 17 16 15 15 15 15 15 14 14 13
36 43 46 40 34 31 26 12 4 7 5 6 16 17 14 15 17 22 26 26 30 33 30 30 33 40 44 43 42 42 42 40 39 40 38 33 30 25 23 23 22 24 27 29 30 30 29 28 27 28 30 30 29 28 27 26 26 26 27 27 27 26 25 24 23 22 21 20 20 20 18 17 18 19 20 21 21 19 16 16 17 16 15 15 15 14 14 15 15 15 15 16 16 16 16 17 15
39 41 42 37 28 27 29 18 5 5 4 2 9 17 20 23 23 24 30 32 31 33 34 32 32 38 42 42 41 41 42 41 40 41 40 36 31 25 23 23 22 22 24 25 25 28 30 30 29 29 29 29 29 29 28 28 28 27 27 27 27 27 25 24 23 22 22 21 21 20 19 17 17 19 20 21 21 19 16 15 14 13 12 12 12 11 11 11 12 13 14 16 17 17 18 18 17
44 37 38 42 35 30 32 24 12 7 4 4 6 8 18 31 31 27 34 41 40 38 38 36 34 35 38 40 39 41 44 44 43 42 41 38 31 26 23 23 24 22 22 24 24 26 29 30 30 30 29 30 31 30 29 28 28 27 27 28 27 27 26 25 24 23 23 21 20 20 19 18 17 18 20 21 20 19 16 14 12 11 10 8 8 8 8 8 9 10 12 14 16 18 19 19 19
46 40 38 43 38 30 31 27 22 13 3 4 5 3 17 31 33 33 36 36 38 41 42 40 38 34 34 36 38 41 43 42 42 42 42 39 32 27 24 24 25 23 21 25 25 25 27 30 30 30 30 31 32 32 30 29 28 28 28 28 28 27 27 26 26 25 24 22 21 21 20 19 19 19 20 20 20 18 16 14 13 11 9 7 7 7 7 7 7 7 9 12 14 17 18 20 20
43 42 40 42 38 31 21 16 25 26 11 6 6 5 19 27 25 29 32 28 29 35 40 42 41 37 33 33 35 39 40 38 37 40 41 38 32 29 26 24 27 25 24 27 27 25 27 28 29 29 29 31 31 32 31 30 29 28 28 28 28 27 28 27 27 27 25 24 23 22 21 21 21 20 20 20 19 17 16 15 14 13 11 9 8 7 6 6 6 6 6 7 10 13 16 19 21
Wind_Direction
85 98 99 102 106 78 49 41 36 6 334 328 342 320 139 134 152 157 163 159 155 154 161 165 163 169 174 177 176 180 179 176 172 163 162 159 158 157 153 150 150 153 151 148 145 144 141 142 141 139 138 134 131 127 125 122 120 121 122 124 124 121 118 115 112 110 109 110 115 118 120 120 120 121 118 113 111 111 110 113 112 109 107 105 107 107 106 104 99 89 81 73 75 92 102 101 101
92 101 105 109 96 76 49 34 10 344 339 343 355 273 155 141 158 162 162 154 155 154 155 160 165 173 178 182 184 186 186 170 168 163 161 161 159 156 154 151 151 153 152 150 146 145 144 143 142 140 139 135 132 127 125 123 121 122 123 124 123 121 118 114 111 109 110 113 117 118 119 119 119 119 113 108 107 107 107 111 110 106 107 106 105 105 106 104 97 89 83 76 77 91 102 103 102
103 105 106 101 80 69 45 23 351 342 344 342 358 160 160 152 157 159 160 151 152 155 156 160 166 175 182 187 185 187 186 168 164 167 168 166 160 156 154 153 152 153 152 151 147 146 146 144 143 141 140 136 133 129 126 124 123 123 124 125 123 120 116 113 111 111 114 116 117 117 117 117 117 115 111 111 108 105 104 103 105 106 108 106 103 102 103 101 95 90 84 78 78 89 101 104 103
106 103 94 77 49 37 30 21 9 0 356 344 357 118 165 159 152 153 157 154 153 155 159 161 164 174 183 187 182 186 187 171 166 174 173 165 161 157 154 154 155 154 152 151 149 148 148 146 144 142 141 138 134 130 128 125 125 126 126 125 122 118 115 114 114 116 118 118 116 115 116 116 116 114 112 113 110 107 107 104 105 108 110 108 105 103 102 99 94 90 85 80 80 85 95 101 102
109 94 77 47 32 38 35 26 16 358 349 342 347 125 158 151 146 147 148 149 154 155 160 164 165 170 177 184 181 185 188 180 168 174 177 164 161 160 154 155 157 155 153 151 152 151 149 147 145 143 142 138 135 131 129 130 129 129 128 124 121 118 117 118 119 120 119 117 115 114 114 114 113 112 110 109 108 108 108 107 107 108 109 107 105 104 102 98 93 89 85 82 82 85 90 97 102
114 85 59 36 44 45 39 30 8 344 344 345 92 155 154 150 149 144 141 144 151 152 155 166 173 171 171 176 177 182 190 193 169 167 180 167 161 162 155 155 156 157 156 153 154 152 150 149 146 144 143 138 135 133 132 134 134 132 127 122 120 119 121 122 122 120 118 117 115 115 114 113 113 112 110 108 107 106 106 107 108 108 108 107 104 103 102 98 95 90 87 85 85 86 89 96 102
90 64 52 43 52 49 38 34 19 9 56 120 135 152 157 155 158 151 147 148 153 156 160 174 183 175 169 176 179 180 183 185 167 165 178 168 161 161 156 156 156 158 158 156 155 153 152 150 146 145 143 139 136 136 137 138 136 131 125 122 121 123 124 124 121 119 117 118 118 117 117 116 115 114 112 110 110 108 108 108 108 109 108 108 106 105 103 100 97 94 92 90 89 90 92 96 101
64 60 67 48 50 51 39 38 42 137 129 136 138 149 157 157 161 157 154 154 158 164 168 175 181 175 164 176 179 168 160 161 162 166 172 166 161 161 157 157 158 159 159 158 157 156 154 150 148 146 143 140 139 140 141 139 134 128 124 123 125 126 125 122 120 119 119 119 120 120 119 118 116 115 114 113 114 111 110 109 109 109 109 107 106 104 103 103 102 99 95 93 93 93 95 97 99
88 74 65 50 51 49 37 36 40 143 136 132 140 146 154 159 161 157 157 160 166 164 167 168 174 180 159 161 163 149 146 151 161 168 169 165 162 161 158 158 160 161 160 160 160 157 155 152 150 148 144 142 143 144 142 137 132 127 125 126 128 127 123 121 120 119 120 121 121 122 121 119 117 115 114 114 114 113 112 111 110 110 109 107 105 103 101 103 105 105 101 100 99 96 97 99 99
105 69 49 50 54 43 28 26 40 147 145 136 142 145 151 162 161 159 162 161 167 159 161 166 170 186 160 152 150 141 146 153 162 167 166 164 162 162 158 158 161 163 163 162 162 159 157 155 151 149 147 145 146 145 140 135 132 129 129 129 129 126 123 121 121 121 122 123 124 124 123 120 118 116 115 115 114 113 112 110 110 108 107 106 104 102 101 101 103 106 105 107 106 98 95 98 101
230 43 37 42 46 36 23 38 107 139 149 144 148 152 153 159 159 162 166 160 170 167 165 170 172 180 161 153 147 142 151 155 162 166 164 164 163 163 159 159 162 165 165 164 163 161 160 157 153 151 149 147 147 143 139 136 134 132 131 131 129 126 124 123 122 123 125 126 126 125 123 120 118 117 115 114 113 112 111 109 108 107 106 104 102 100 99 99 100 103 106 108 106 100 95 97 101
239 54 42 39 41 41 35 59 117 132 146 147 152 158 157 158 162 167 167 160 169 173 176 176 176 177 163 158 150 147 155 157 162 166 163 165 165 164 162 161 162 165 167 166 166 164 164 160 156 154 151 149 147 143 141 139 136 135 134 132 131 128 126 124 122 123 126 126 126 124 121 120 117 116 114 113 112 111 111 111 109 107 105 102 100 98 97 97 99 101 105 105 103 100 99 98 98
228 102 56 44 45 55 56 47 101 145 157 153 150 157 162 161 168 172 163 160 167 172 178 175 175 178 169 162 154 151 157 160 163 166 164 165 167 166 164 164 164 166 169 170 169 168 167 163 160 157 153 150 147 145 143 142 139 137 136 135 133 131 128 123 120 121 125 125 124 122 120 119 117 115 113 111 110 110 110 110 109 106 103 101 99 99 97 97 97 99 103 106 106 105 105 102 99
197 131 63 60 61 67 63 29 5 178 166 167 166 164 165 163 169 177 166 158 165 172 162 157 172 178 175 166 158 156 159 162 163 165 165 165 168 167 166 167 167 168 170 173 172 171 170 165 164 161 155 152 149 148 146 145 142 139 138 137 136 133 129 122 120 122 125 126 124 123 121 120 118 114 111 108 107 106 107 107 106 105 103 103 102 101 99 97 97 99 102 107 109 108 108 107 104
171 161 55 62 79 79 71 38 25 130 153 169 188 174 159 157 169 180 173 157 153 162 148 150 171 179 186 179 165 161 161 161 164 165 166 166 167 166 167 170 170 171 172 174 174 173 171 168 167 163 157 153 151 150 149 147 144 143 141 140 139 136 130 123 122 125 127 128 126 124 122 120 117 113 110 107 104 102 102 103 103 104 105 104 104 103 101 100 97 97 100 108 113 110 107 106 107
190 202 204 54 93 93 86 62 58 117 146 158 179 168 151 158 172 178 174 166 146 149 139 149 169 182 200 200 173 161 160 161 165 167 167 166 165 165 169 172 172 172 174 175 176 174 173 171 169 165 159 155 153 153 152 149 147 146 145 143 142 138 131 126 125 126 128 129 127 125 123 120 117 113 110 105 101 99 99 101 102 102 102 102 103 104 102 100 95 92 94 101 110 113 110 106 108
201 200 223 29 120 97 96 93 70 99 146 156 155 154 153 158 166 172 168 173 146 139 133 142 161 177 195 203 177 161 162 164 166 169 169 167 166 169 171 173 174 175 175 176 177 175 174 174 172 167 162 158 156 155 154 152 150 149 148 146 144 140 134 130 129 128 129 129 127 125 124 121 118 113 109 106 101 98 97 99 100 100 100 102 103 104 102 99 97 95 93 95 99 106 111 111 110
201 197 223 157 130 98 102 97 62 70 130 150 146 145 148 152 162 171 165 160 150 138 138 151 163 164 177 192 178 165 165 166 170 172 172 171 171 174 174 175 177 176 176 176 177 177 176 175 174 171 165 161 159 157 156 154 153 151 150 147 145 142 139 135 133 130 129 129 127 126 124 121 119 115 112 109 104 100 98 98 97 97 98 100 101 103 103 101 100 100 96 96 96 97 101 107 112
199 208 209 139 128 116 107 92 72 90 116 136 145 159 156 161 173 175 172 166 165 160 151 162 170 163 172 185 177 170 170 169 173 175 175 176 177 176 176 177 178 177 176 175 175 175 177 178 176 174 169 164 162 159 157 156 155 153 151 149 147 145 142 140 136 133 131 129 127 127 126 125 122 119 115 111 107 104 101 98 96 96 95 96 99 101 102 101 100 100 98 96 96 94 91 94 103
197 213 186 127 130 128 113 92 95 115 130 140 158 171 169 171 178 177 179 175 183 199 186 178 182 172 170 180 179 173 174 173 175 176 177 180 179 178 178 179 179 178 176 174 175 175 177 180 178 176 171 168 165 162 159 157 156 155 152 150 149 148 145 143 139 138 136 132 131 130 129 128 126 122 118 114 110 107 103 100 98 96 96 96 97 98 100 100 99 99 99 97 94 91 87 86 92
193 189 137 119 127 126 122 116 102 117 135 142 158 173 181 178 178 183 189 188 201 222 217 189 198 188 175 179 183 178 178 177 176 177 180 181 180 179 180 180 180 179 177 175 176 177 178 180 180 177 173 171 168 165 162 159 159 157 154 153 151 150 148 145 143 142 140 138 136 134 132 130 128 125 121 118 115 111 107 104 102 100 100 99 96 97 99 100 99 96 96 97 93 87 85 84 84
195 177 134 131 131 124 131 128 113 131 138 145 201 186 185 184 183 193 213 237 262 267 237 140 184 198 186 185 185 183 182 180 179 180 181 181 180 179 179 180 181 180 180 179 179 179 180 182 181 178 175 173 170 167 165 162 162 159 157 156 154 152 151 149 149 146 142 141 138 135 134 132 130 127 124 120 117 113 109 106 105 103 102 102 98 95 96 95 92 89 87 89 90 86 82 80 75
195 182 152 145 137 138 140 127 254 173 157 172 218 196 175 181 183 197 235 262 272 275 280 173 163 186 195 192 190 190 187 183 184 182 180 181 181 180 178 179 182 182 182 182 182 182 183 184 182 180 177 175 173 171 169 167 165 163 160 159 157 155 155 155 154 151 146 143 140 137 136 134 132 130 127 122 119 115 109 106 104 104 105 104 101 97 94 92 87 83 82 80 83 85 82 78 72
200 184 165 157 162 191 165 165 236 195 177 182 202 193 172 177 189 202 223 234 237 244 255 212 190 192 193 194 195 196 193 189 187 183 180 182 183 182 181 181 182 184 183 183 184 184 185 185 183 180 179 178 177 174 172 172 170 167 164 162 161 160 161 160 158 155 151 148 145 143 141 139 135 133 129 122 122 121 111 109 107 105 107 105 101 96 91 91 88 83 82 79 78 79 79 77 73
212 192 177 200 233 253 256 240 235 218 198 191 197 192 177 191 231 223 208 207 222 237 235 209 205 201 193 193 196 197 197 194 190 186 182 182 185 184 184 184 183 184 183 183 186 186 186 185 184 182 180 180 180 178 176 177 174 169 166 166 164 164 166 166 165 161 158 156 151 147 147 145 140 137 130 123 125 121 112 111 110 106 105 102 98 92 88 91 92 86 81 79 74 70 75 74 70
206 190 187 218 236 250 253 242 232 221 216 208 202 201 194 205 228 221 208 208 218 230 226 208 207 203 195 192 192 194 196 197 194 189 185 183 187 187 187 186 185 185 182 185 187 186 187 186 185 183 181 182 181 180 180 180 177 171 169 169 168 167 170 171 170 168 165 162 157 152 148 144 140 138 131 127 126 120 114 113 110 106 102 98 97 91 85 86 89 85 79 77 72 65 67 66 61
197 197 210 226 236 240 242 245 233 225 222 205 204 212 201 197 208 211 211 213 221 226 215 205 210 207 197 194 192 190 194 198 196 193 190 187 189 190 189 188 186 185 183 187 189 188 189 186 185 185 182 184 183 182 184 184 180 174 172 172 172 171 174 176 174 172 170 164 160 157 147 141 140 136 132 128 126 121 116 114 109 107 104 97 92 85 79 80 80 77 74 72 68 64 62 60 56
201 214 236 242 246 245 242 245 235 232 227 206 212 219 206 206 217 219 214 212 221 220 205 203 209 206 199 198 195 189 191 197 197 197 195 192 190 190 191 190 187 186 185 188 190 190 191 187 186 187 184 185 185 184 186 186 183 179 177 176 175 175 178 181 177 172 172 165 160 158 145 142 141 135 135 131 128 126 119 117 112 108 106 98 89 79 78 80 76 73 71 69 63 61 58 54 53
207 220 242 244 248 248 242 240 238 242 241 217 210 206 206 216 219 215 212 212 219 215 203 202 201 200 198 199 199 194 192 196 199 199 198 198 194 192 193 193 190 188 186 189 192 192 192 189 188 188 187 186 186 187 188 188 187 184 181 181 180 180 181 184 181 174 174 169 160 158 149 143 142 137 137 134 132 128 118 114 112 108 103 96 89 79 79 79 73 73 74 71 64 61 61 53 46
222 231 244 249 250 248 241 236 237 241 239 219 206 202 209 220 209 207 218 219 219 211 201 199 197 198 197 198 201 199 196 197 198 197 197 199 199 195 194 194 194 192 190 190 192 193 193 192 191 191 189 187 189 189 189 190 191 188 185 186 186 183 184 187 186 178 174 169 160 162 157 148 146 141 138 137 135 127 118 117 111 106 101 89 83 78 78 78 72 74 77 74 64 65 70 60 45
233 238 244 249 250 251 245 234 228 230 229 216 213 217 220 220 212 220 233 224 219 210 197 196 196 197 197 198 201 202 203 201 199 195 194 198 200 198 195 194 195 193 193 193 192 190 194 196 193 193 191 188 190 192 191 191 192 192 190 190 189 187 187 187 186 181 176 168 161 168 166 154 150 143 141 141 135 128 125 128 124 114 103 81 75 77 80 83 77 75 77 72 63 65 68 61 51
228 239 244 242 245 252 246 228 220 226 230 218 216 223 221 217 219 234 233 215 215 210 200 199 197 196 197 198 199 202 206 206 204 198 192 195 199 199 196 197 196 194 195 194 194 191 191 198 197 195 194 190 191 193 194 192 192 194 194 194 192 191 191 185 182 182 180 173 166 172 174 163 158 151 148 148 138 136 135 133 137 128 110 86 72 73 75 79 80 78 72 64 61 62 58 54 49
227 234 240 237 241 245 235 220 218 229 232 220 219 222 218 220 226 230 219 208 213 211 204 204 199 197 197 197 198 200 203 208 209 202 195 194 199 199 196 200 199 195 195 194 197 194 190 196 198 196 197 193 191 193 196 194 193 196 195 195 194 193 192 185 180 181 181 180 176 178 179 174 170 165 162 164 152 151 155 142 145 138 117 108 92 74 70 78 81 78 72 63 60 59 51 45 42
227 229 233 231 238 240 228 217 218 228 228 219 221 225 225 230 225 215 208 208 216 214 206 204 202 201 197 195 197 199 203 208 209 205 200 196 199 198 194 201 202 196 196 196 197 197 194 196 198 197 198 196 194 193 197 197 193 196 197 195 195 194 193 188 181 181 182 183 184 182 183 184 184 183 178 180 174 171 175 157 155 145 116 111 104 86 78 88 84 77 77 71 63 57 47 38 34
222 222 225 227 234 240 230 223 221 222 222 217 219 225 227 228 218 214 215 214 218 219 212 207 204 204 198 194 197 200 205 209 210 207 202 199 201 201 195 200 205 200 197 198 197 197 198 199 198 198 198 198 196 193 196 200 197 198 198 195 195 194 193 190 183 182 184 183 186 187 187 188 190 196 193 190 188 187 192 176 165 153 121 114 109 97 71 73 74 73 80 80 70 59 48 34 26
221 221 222 224 231 236 226 225 227 218 217 215 217 224 221 212 211 221 223 215 213 217 215 210 207 204 199 199 199 201 206 208 209 207 203 201 204 206 202 202 206 203 200 201 199 198 198 199 199 199 199 198 197 195 197 201 201 200 199 195 194 193 192 191 185 183 185 185 187 188 188 189 190 198 200 193 192 192 198 193 182 169 155 161 130 111 92 65 60 68 81 85 75 62 54 36 19
222 225 224 221 227 230 220 221 227 220 218 216 220 225 214 207 213 221 220 210 208 212 212 210 208 205 203 206 205 202 202 202 204 207 206 204 205 209 207 205 206 203 202 204 203 202 200 200 200 200 201 201 199 197 198 202 203 201 198 193 191 192 191 191 186 184 185 187 188 188 189 189 189 196 201 195 193 194 196 197 192 183 179 192 174 123 103 70 61 73 86 87 66 51 53 42 21
221 224 223 225 228 229 224 223 222 221 225 221 221 221 212 211 215 215 213 209 207 208 208 209 211 213 211 210 209 202 193 192 199 204 206 206 205 208 209 208 206 203 203 206 205 205 203 202 202 201 203 204 201 197 200 203 204 203 199 193 191 192 192 192 188 185 186 188 190 190 190 191 189 195 202 197 193 196 199 200 198 189 190 206 223 183 127 103 97 91 92 88 57 45 52 50 39
221 221 225 231 228 232 240 233 226 228 228 222 221 218 213 215 214 206 207 210 211 209 208 212 216 217 216 212 210 203 192 192 199 202 204 205 204 207 210 209 207 205 205 206 205 205 206 205 203 202 204 207 203 198 200 202 203 204 200 195 195 195 195 194 193 191 188 188 190 192 192 192 192 196 202 200 195 199 204 205 200 196 198 204 213 200 150 135 119 102 92 76 53 50 58 59 57
221 221 228 233 226 234 244 234 232 236 230 228 227 218 211 211 206 199 203 215 219 214 212 218 223 225 227 222 217 214 205 203 204 203 203 204 204 207 210 210 207 205 206 206 205 205 206 206 204 203 204 207 205 199 198 199 200 202 200 197 198 200 200 199 199 196 190 188 192 195 194 193 195 198 202 205 201 201 207 210 205 203 208 205 211 210 156 145 120 104 94 71 52 57 68 69 65
221 220 225 229 222 226 236 235 241 240 239 242 225 208 202 199 193 192 200 216 220 215 213 219 227 229 232 231 226 226 219 213 211 208 206 205 206 208 209 210 209 207 207 206 206 206 206 206 204 203 204 207 205 199 197 198 198 200 200 198 197 199 201 200 199 196 191 188 192 197 197 197 200 202 204 208 208 204 206 213 212 209 215 217 223 233 207 176 142 109 97 75 56 63 75 76 73
222 219 218 220 216 222 236 246 255 252 264 248 210 191 195 196 193 197 201 204 208 210 213 220 226 224 224 225 223 226 224 219 220 220 218 214 211 211 209 210 210 209 207 205 205 208 209 207 204 202 203 206 205 200 198 199 199 201 201 199 198 198 200 198 195 195 193 189 191 199 203 202 203 206 207 208 212 210 207 213 216 216 220 223 224 227 216 186 158 123 103 86 66 67 75 78 77
222 218 212 214 217 228 240 246 256 255 273 247 202 192 195 195 197 203 201 198 201 206 214 221 226 226 226 224 218 219 218 216 219 222 224 223 219 216 213 211 211 208 203 200 201 205 209 209 206 204 203 204 205 201 199 200 201 203 203 201 200 202 203 198 194 196 197 195 194 200 208 209 206 207 210 210 213 214 212 214 218 220 223 224 223 220 216 194 170 146 121 108 91 78 78 82 82
222 219 213 217 222 232 240 242 250 249 263 266 208 198 196 193 200 205 200 197 200 207 215 219 225 231 232 228 221 217 213 211 213 215 218 222 224 223 220 217 214 208 202 198 198 201 205 208 207 206 203 203 204 202 201 202 202 204 205 202 200 201 202 198 196 199 201 201 199 201 208 212 209 209 213 214 215 218 217 217 220 223 223 222 223 221 217 203 184 164 143 132 116 97 91 90 93
221 221 219 223 226 232 240 243 250 250 256 273 230 207 203 196 201 204 201 199 201 208 215 219 224 230 232 228 225 220 213 209 210 212 214 220 225 225 223 221 216 210 205 200 198 198 200 205 207 206 203 202 204 204 203 203 204 205 206 205 201 200 200 199 200 203 204 204 201 201 207 212 212 212 216 217 217 219 220 220 222 224 224 223 223 221 215 206 192 176 156 146 136 122 119 112 110
220 220 221 226 229 236 244 246 249 250 248 258 248 226 221 208 200 200 199 201 205 211 217 222 224 227 230 229 226 223 216 209 209 214 217 223 231 229 222 218 215 211 207 202 199 199 198 202 207 206 202 201 202 204 205 204 205 206 206 206 203 201 201 202 205 207 207 206 202 200 205 212 214 214 217 221 220 220 222 222 222 224 225 225 224 220 216 211 198 183 170 162 153 136 135 139 129
221 221 221 226 231 238 245 245 242 244 234 242 250 241 232 231 202 200 200 204 211 215 219 222 223 223 228 229 227 223 217 211 211 213 215 220 229 231 221 215 212 209 206 202 199 199 198 201 204 205 202 200 201 203 205 205 206 207 208 207 205 203 203 206 211 212 211 208 203 200 203 210 217 218 218 221 221 221 222 223 222 223 225 227 227 223 219 216 206 192 180 174 169 151 144 151 143
218 219 220 226 235 240 244 241 233 231 218 235 245 243 234 233 211 203 205 213 218 220 220 219 220 222 224 226 226 223 220 219 218 214 211 212 216 221 216 210 209 207 204 201 199 198 198 199 201 202 202 200 199 201 203 205 206 206 208 209 208 207 206 208 213 216 217 213 208 206 204 207 215 220 219 219 222 222 223 224 224 224 226 228 229 227 223 221 213 200 191 185 180 166 153 156 151
214 215 216 219 230 238 237 230 224 207 211 233 237 235 231 231 226 216 212 217 220 222 224 222 222 223 223 223 224 223 222 223 223 217 210 208 212 217 213 207 207 206 203 200 198 198 198 198 198 199 200 199 198 200 202 204 206 205 206 209 210 211 210 210 211 215 218 217 213 212 208 206 214 222 224 222 223 226 227 228 228 228 228 228 230 229 225 223 216 204 196 191 188 180 163 159 157
211 211 214 212 200 220 227 223 226 190 214 231 231 225 225 229 230 226 221 223 223 223 225 226 226 227 226 224 224 224 223 224 225 220 212 211 216 220 217 211 210 208 204 200 199 200 200 199 198 196 196 197 198 200 201 204 206 206 206 209 212 214 215 213 210 210 215 218 217 215 212 209 212 222 230 227 222 223 226 228 228 227 225 225 227 228 225 222 217 207 196 192 193 190 176 165 163
211 210 213 217 214 210 210 208 205 179 206 224 221 213 211 217 227 229 225 225 227 227 226 226 227 230 232 229 224 224 224 225 226 221 216 217 220 223 221 218 215 212 207 202 200 200 202 202 201 197 194 195 197 198 200 203 205 206 207 208 211 215 217 218 214 211 213 218 219 217 215 212 210 214 224 227 222 218 219 223 226 225 224 223 224 225 225 222 217 209 199 195 196 197 190 176 171
210 208 210 219 221 216 214 251 220 187 177 218 217 205 198 217 230 233 227 225 226 229 230 228 227 229 232 231 226 224 226 227 226 222 219 217 218 222 224 223 221 215 211 208 203 201 203 205 204 200 196 195 197 197 199 201 202 206 208 209 210 214 217 219 217 213 211 215 219 219 217 214 212 211 214 221 224 219 215 219 224 225 223 223 224 224 223 222 218 211 204 198 196 198 200 193 181
206 205 210 216 220 219 219 245 234 202 183 225 226 220 199 212 226 223 220 222 224 227 230 228 227 227 228 228 227 227 228 228 226 224 221 217 217 220 222 224 225 219 214 212 209 206 204 205 206 203 199 197 198 198 197 198 201 205 208 210 211 213 216 218 217 216 213 214 219 222 220 214 211 209 210 214 221 221 215 216 222 224 222 223 224 224 223 222 218 211 206 201 198 198 202 204 197
206 204 209 211 215 223 224 228 229 202 207 232 229 228 220 218 224 219 212 214 220 225 229 228 223 223 224 225 226 227 227 227 227 227 223 217 217 219 219 221 223 219 215 213 213 210 207 206 205 203 201 199 198 198 196 197 200 204 207 210 212 213 216 218 217 218 217 217 218 221 222 217 210 208 208 210 216 218 213 212 217 220 219 219 220 221 221 221 217 210 206 204 203 202 202 206 206
214 211 208 202 201 213 217 218 209 188 201 248 230 228 228 230 230 226 223 222 223 226 229 229 223 220 221 223 225 226 226 226 226 226 222 216 217 218 216 217 218 216 214 213 214 212 209 207 205 203 202 200 199 198 196 197 200 203 206 209 212 214 215 217 218 218 219 218 216 218 222 219 213 209 208 209 212 214 210 207 209 213 214 213 213 215 216 218 215 209 206 206 207 207 205 207 209
216 216 208 203 206 208 208 210 207 185 185 226 224 220 229 233 234 235 234 230 229 229 230 230 227 221 217 217 221 225 226 226 225 224 221 217 218 217 215 218 220 218 212 210 212 211 208 206 204 202 201 201 201 199 197 197 200 203 206 208 210 213 214 215 217 219 220 219 217 218 220 220 218 214 210 210 211 211 210 206 205 209 211 206 203 206 209 212 212 206 204 206 209 211 210 210 212
209 208 201 201 206 207 208 213 211 200 168 186 196 226 236 236 236 237 236 233 232 231 229 229 228 224 217 214 218 221 224 226 225 223 221 218 219 219 216 219 223 223 214 206 207 208 205 205 204 202 201 202 202 200 197 197 199 203 206 209 211 211 213 214 216 218 219 219 219 219 219 221 221 218 214 213 212 211 210 208 207 209 210 208 200 196 199 202 204 204 204 205 209 212 213 213 215
208 205 202 201 200 196 198 211 212 211 215 200 181 223 241 239 236 234 234 236 234 224 221 224 226 226 222 216 217 219 221 222 221 221 221 219 221 220 215 218 221 222 215 206 203 202 201 202 203 202 203 205 204 202 199 197 199 202 204 208 210 211 214 215 216 217 216 217 218 218 219 220 222 222 219 216 214 212 211 209 208 207 209 213 212 207 202 195 192 197 203 206 209 211 212 215 218